Tracking 28341 objects as of 6-Dec-2023
HD Live streaming from Space Station
objects crossing your sky now

NOAA 16 DEB

Track NOAA 16 DEB now!
10-day predictions


NORAD ID: 41498
Int'l Code: 2000-055LW
Perigee: 821.5 km
Apogee: 848.4 km
Inclination: 98.9 °
Period: 101.5 minutes
Semi major axis: 7205 km
RCS: Unknown
Launch date: September 21, 2000
Source: United States (US)
Launch site: AIR FORCE WESTERN TEST RANGE (AFWTR)

Note: This is SATELLITE DEBRIS
Your satellite tracking list
Your tracking list is empty




NASA's NSSDC Master Catalog

Two Line Element Set (TLE):
1 41498U 00055LW  23339.26965133  .00002950  00000-0  14250-2 0  9991
2 41498  98.9358  92.7755 0018652 101.3525 258.9747 14.19273229400280
Source of the keplerian elements: AFSPC